Terminal Aerodrome Forecast
Issued by NWS

Home | Current Version | Previous Version | Text Only | Print | Product List | Glossary On
Versions: 1 2 3 4 5 6 7 8 9 10 11 12 13 14 15 16 17 18 19 20 21 22 23 24 25 26 27 28 29 30 31 32 33 34 35 36 37 38 39 40 41 42 43 44 45 46 47 48
000
FTAK31 PAFA 061436 AAA
TAFAOM
TAF AMD
PAOM 061436Z 0615/0712 08011KT 2SM -SN BR OVC023
      TEMPO 0615/0618 1SM -SN BR OVC004
     FM061800 12018G28KT 1/2SM SN BLSN FZFG OVC004
     FM062100 15020G30KT 1/2SM -SN BLSN FZFG OVC004=

USA.gov is the U.S. government's official web portal to all federal, state and local government web resources and services.